Regional Weather Roundup
Issued by NWS

Home | Current Version | Previous Version | Graphics & Text | Print | Product List | Glossary On
Versions: 1 2 3 4 5 6 7 8 9 10 11 12 13 14 15 16 17 18 19 20 21 22 23 24 25 26 27 28 29 30 31 32 33 34 35 36 37 38 39 40 41 42 43 44 45 46 47 48 49 50
000
ASUS43 KTOP 181008
RWRKS

WEATHER ROUNDUP FOR KANSAS
NATIONAL WEATHER SERVICE GOODLAND KS
500 AM CDT FRI AUG 18 2017

NOTE:  "FAIR" INDICATES FEW OR NO CLOUDS BELOW 12,000 FEET WITH NO
SIGNIFICANT WEATHER AND/OR OBSTRUCTIONS TO VISIBILITY.

KSZ001>006-013>018-027>032-041>047-181100-
NORTHWEST KANSAS

CITY           SKY/WX    TMP DP  RH WIND       PRES   REMARKS
GOODLAND       CLEAR     60  55  83 S13       30.03R
HAYS           PTCLDY    63  59  87 SW9       29.97R
HILL CITY      CLOUDY    66  58  75 SW6       29.98R
RUSSELL        CLOUDY    65  60  84 S10       29.93S
$$

KSZ061>065-074>080-084>089-181100-
SOUTHWEST KANSAS

CITY           SKY/WX    TMP DP  RH WIND       PRES   REMARKS
DODGE CITY     CLOUDY    68  59  73 S13       30.02F
ELKHART          N/A     61  61 100 SE8         N/A
GARDEN CITY    CLOUDY    65  61  87 S12       30.02F
GREAT BEND     CLOUDY    64  62  93 S5        29.97F
LIBERAL        LGT RAIN  62  59  90 SE16G23   30.06F
PRATT          CLOUDY    68  58  70 S5        29.99F
$$

KSZ066>073-081>083-090>101-181100-
SOUTHEAST KANSAS

CITY           SKY/WX    TMP DP  RH WIND       PRES   REMARKS
CHANUTE        MOCLDY    67  63  87 S3        29.98S
COFFEYVILLE    PTCLDY    65  64  97 SE3       29.97F
HUTCHINSON     MOCLDY    67  64  90 SW3       29.94F
MEDICINE LODGE   N/A     68  61  78 W3        29.99S
NEWTON         CLOUDY    68  64  87 S3        29.95F
PARSONS        MOCLDY    64  63  96 CALM      29.98F
WICHITA INTL   CLOUDY    69  65  86 S12       29.94F
WICHITA JABRA  CLOUDY    69  64  84 SE6       29.94F
WICHITA MCCONL MOCLDY    70  63  79 S8        29.95F
WINFIELD       CLOUDY    72  63  73 E3        29.99S
$$

KSZ007>012-019>026-033>040-048>060-102>105-181100-
NORTHEAST KANSAS

CITY           SKY/WX    TMP DP  RH WIND       PRES   REMARKS
CONCORDIA      MOCLDY    67  62  84 W7        29.95R
EMPORIA        CLOUDY    69  60  73 S6        29.95F
LAWRENCE       MOCLDY    61  61 100 CALM      29.95S
MANHATTAN      CLOUDY    68  64  87 CALM      29.91F
MARYSVILLE     CLOUDY    66  61  82 N12       29.95R
OLATHE IND     CLEAR     62  60  93 S3        29.96S
OLATHE EXE     PTCLDY    63  61  93 S3        29.95F
SALINA         CLOUDY    71  63  75 SW13      29.91R
TOPEKA BILLARD PTCLDY    64  62  93 SE3       29.93F
TOPEKA FORBES  CLOUDY    66  62  87 S8        29.94F
$$




USA.gov is the U.S. government's official web portal to all federal, state and local government web resources and services.